FW8143 Weather Reports


Display with metric or nautical units.
time (UTC)temp
F
wind
direction
speed
MPH
gust
MPH
rain 1hr
in
rain 24hr
in
rain mn
in
humidity
%
barometer
mb
20260505200421 55 203 9.0 20.0 0.00 0.00 0.00 51 1018.2
20260505195920 55 237 10.0 23.0 0.00 0.00 0.00 49 1018.1
20260505195420 55 272 10.0 23.0 0.00 0.00 0.00 49 1018.1
20260505194920 55 232 10.0 24.0 0.00 0.00 0.00 50 1018.1
20260505194420 56 266 9.0 24.0 0.00 0.00 0.00 49 1018.1
20260505193920 56 255 9.0 16.0 0.00 0.00 0.00 48 1018.1
20260505193645 56 259 9.0 17.0 0.00 0.00 0.00 48 1018.1
20260505193144 56 257 9.0 17.0 0.00 0.00 0.00 47 1018.0
20260505192419 56 240 10.0 16.0 0.00 0.00 0.00 47 1018.0
20260505191919 56 240 10.0 18.0 0.00 0.00 0.00 46 1018.1
20260505191417 56 265 10.0 18.0 0.00 0.00 0.00 45 1018.0
20260505190918 56 235 9.0 19.0 0.00 0.00 0.00 44 1018.1
20260505190635 57 209 10.0 19.0 0.00 0.00 0.00 45 1018.1
20260505185916 58 185 10.0 18.0 0.00 0.00 0.00 44 1018.1
20260505185415 58 234 9.0 17.0 0.00 0.00 0.00 41 1018.0
20260505184916 58 214 10.0 19.0 0.00 0.00 0.00 40 1017.9
20260505184641 59 197 8.0 19.0 0.00 0.00 0.00 39 1018.0
20260505183915 59 281 7.0 14.0 0.00 0.00 0.00 38 1018.1
20260505183415 59 214 8.0 17.0 0.00 0.00 0.00 38 1018.1
20260505183136 60 254 7.0 17.0 0.00 0.00 0.00 36 1018.1
20260505182723 61 256 7.0 17.0 0.00 0.00 0.00 35 1018.0
20260505182619 60 244 7.0 16.0 0.00 0.00 0.00 37 1017.9
20260505181412 59 200 6.0 16.0 0.00 0.00 0.00 39 1017.7
20260505180914 58 269 6.0 12.0 0.00 0.00 0.00 39 1017.9
20260505180638 57 171 6.0 12.0 0.00 0.00 0.00 40 1018.0
20260505175911 56 227 5.0 10.0 0.00 0.00 0.00 41 1018.0
20260505175412 56 173 5.0 15.0 0.00 0.00 0.00 41 1018.1
20260505174913 56 287 5.0 15.0 0.00 0.00 0.00 40 1018.5
20260505174412 56 198 4.0 14.0 0.00 0.00 0.00 41 1018.6
20260505173911 56 165 4.0 9.0 0.00 0.00 0.00 41 1018.6
20260505173849 56 310 3.0 9.0 0.00 0.00 0.00 41 1018.6
20260505172908 56 115 4.0 10.0 0.00 0.00 0.00 40 1018.5
20260505172406 56 234 5.0 10.0 0.00 0.00 0.00 40 1018.5
20260505171900 55 231 3.0 8.0 0.00 0.00 0.00 41 1018.5
20260505171355 55 295 4.0 11.0 0.00 0.00 0.00 42 1018.6
20260505171110 54 263 4.0 11.0 0.00 0.00 0.00 43 1018.6
20260505170343 54 221 3.0 12.0 0.00 0.00 0.00 43 1018.6
20260505165836 53 161 5.0 12.0 0.00 0.00 0.00 43 1018.7
20260505165331 53 271 5.0 10.0 0.00 0.00 0.00 44 1018.7
20260505164825 52 200 5.0 10.0 0.00 0.00 0.00 45 1018.9
20260505164318 52 238 4.0 10.0 0.00 0.00 0.00 46 1018.9
20260505163812 52 259 5.0 10.0 0.00 0.00 0.00 47 1019.0
20260505163307 51 211 6.0 11.0 0.00 0.00 0.00 47 1019.0
20260505162800 51 232 5.0 11.0 0.00 0.00 0.00 47 1019.0
20260505162255 50 259 4.0 10.0 0.00 0.00 0.00 48 1019.0
20260505161749 50 271 5.0 12.0 0.00 0.00 0.00 47 1019.0
20260505161505 50 180 6.0 15.0 0.00 0.00 0.00 49 1019.2
20260505160737 50 286 7.0 15.0 0.00 0.00 0.00 48 1019.2
20260505160231 50 265 5.0 14.0 0.00 0.00 0.00 48 1019.2
20260505152646 49 260 3.0 9.0 0.00 0.00 0.00 49 1019.2
20260505152141 49 355 4.0 9.0 0.00 0.00 0.00 48 1019.2
20260505151635 49 227 4.0 9.0 0.00 0.00 0.00 49 1019.2
20260505151128 49 277 4.0 9.0 0.00 0.00 0.00 49 1019.2
20260505150623 49 250 5.0 12.0 0.00 0.00 0.00 49 1019.4
20260505150117 50 192 7.0 14.0 0.00 0.00 0.00 48 1019.4
20260505140511 50 17 6.0 13.0 0.00 0.00 0.00 50 1019.2
20260505124619 47 239 4.0 9.0 0.00 0.00 0.00 46 1019.5
20260505124111 47 281 4.0 8.0 0.00 0.00 0.00 46 1019.5
20260505123353 47 322 4.0 8.0 0.00 0.00 0.00 45 1019.4
20260505122853 47 17 3.0 8.0 0.00 0.00 0.00 45 1019.4
20260505122354 47 344 3.0 9.0 0.00 0.00 0.00 44 1019.4
20260505122115 47 267 5.0 12.0 0.00 0.00 0.00 44 1019.1
20260505121614 47 246 5.0 12.0 0.00 0.00 0.00 44 1019.1
20260505120851 47 317 5.0 12.0 0.00 0.00 0.00 44 1019.1
20260505120557 46 320 4.0 9.0 0.00 0.00 0.00 45 1018.9
20260505120438 46 286 5.0 12.0 0.00 0.00 0.00 44 1019.0
20260505115351 46 322 3.0 9.0 0.00 0.00 0.00 45 1018.9
20260505114851 47 304 2.0 8.0 0.00 0.00 0.00 44 1019.0
20260505114349 47 294 1.0 5.0 0.00 0.00 0.00 44 1019.1
20260505114105 47 293 1.0 6.0 0.00 0.00 0.00 44 1019.2
20260505113345 47 311 1.0 7.0 0.00 0.00 0.00 43 1019.2
20260505112845 47 279 1.0 7.0 0.00 0.00 0.00 43 1019.2
20260505112604 47 300 1.0 4.0 0.00 0.00 0.00 43 1019.2
20260505111835 47 311 1.0 3.0 0.00 0.00 0.00 43 1019.2
20260505111328 48 296 1.0 3.0 0.00 0.00 0.00 42 1019.1
20260505110822 48 355 1.0 3.0 0.00 0.00 0.00 42 1019.0
20260505110315 48 300 1.0 3.0 0.00 0.00 0.00 42 1019.0
20260505102032 49 317 2.0 5.0 0.00 0.00 0.00 40 1019.0
20260505101306 49 303 3.0 8.0 0.00 0.00 0.00 40 1019.0
20260505100806 49 293 3.0 9.0 0.00 0.00 0.00 40 1018.9
20260505100304 49 298 2.0 9.0 0.00 0.00 0.00 40 1019.0
20260505095805 50 322 2.0 8.0 0.00 0.00 0.00 41 1018.9
20260505095301 50 0 2.0 8.0 0.00 0.00 0.00 41 1018.9
20260505094800 50 302 2.0 7.0 0.00 0.00 0.00 40 1019.0
20260505094522 50 302 1.0 7.0 0.00 0.00 0.00 40 1019.0
20260505093800 50 301 1.0 4.0 0.00 0.00 0.00 40 1019.0
20260505093301 50 297 3.0 9.0 0.00 0.00 0.00 39 1019.0
20260505093024 50 254 4.0 9.0 0.00 0.00 0.00 39 1019.0
20260505092301 50 320 3.0 7.0 0.00 0.00 0.00 39 1018.9
20260505091800 51 309 3.0 13.0 0.00 0.00 0.00 38 1018.9
20260505091303 51 208 4.0 13.0 0.00 0.00 0.00 37 1018.9
20260505090801 51 271 3.0 8.0 0.00 0.00 0.00 37 1019.0
20260505090301 51 284 3.0 8.0 0.00 0.00 0.00 36 1019.0
20260505085801 51 323 3.0 8.0 0.00 0.00 0.00 36 1019.1
20260505085301 51 355 2.0 8.0 0.00 0.00 0.00 36 1019.2
20260505084800 51 308 1.0 4.0 0.00 0.00 0.00 36 1019.2
20260505084300 51 311 1.0 4.0 0.00 0.00 0.00 36 1019.2
20260505083801 52 332 1.0 4.0 0.00 0.00 0.00 35 1019.4
20260505083259 52 355 1.0 3.0 0.00 0.00 0.00 36 1019.5
20260505082758 52 278 0.0 3.0 0.00 0.00 0.00 35 1019.8
20260505082256 52 291 1.0 5.0 0.00 0.00 0.00 35 1020.0
20260505081749 52 289 3.0 8.0 0.00 0.00 0.00 35 1020.0
20260505081243 52 292 4.0 8.0 0.00 0.00 0.00 34 1020.1
20260505081003 52 292 5.0 10.0 0.00 0.00 0.00 34 1020.0
20260505080231 52 320 5.0 10.0 0.00 0.00 0.00 34 1019.9
20260505075726 53 339 5.0 10.0 0.00 0.00 0.00 34 1019.8
20260505075703 53 321 6.0 11.0 0.00 0.00 0.00 34 1019.9
20260505074714 53 304 6.0 13.0 0.00 0.00 0.00 34 1020.0
20260505074208 53 283 5.0 13.0 0.00 0.00 0.00 33 1020.0
20260505073702 53 286 5.0 13.0 0.00 0.00 0.00 33 1019.8
20260505073156 53 319 6.0 15.0 0.00 0.00 0.00 33 1019.6
20260505072649 53 284 6.0 15.0 0.00 0.00 0.00 33 1019.6
20260505072144 53 309 5.0 13.0 0.00 0.00 0.00 33 1019.5
20260505071638 54 355 4.0 9.0 0.00 0.00 0.00 33 1019.4
20260505071132 54 344 5.0 15.0 0.00 0.00 0.00 33 1019.4
20260505070625 54 293 5.0 15.0 0.00 0.00 0.00 33 1019.5
20260505070120 54 340 4.0 12.0 0.00 0.00 0.00 33 1019.6
20260505065614 54 310 3.0 12.0 0.00 0.00 0.00 33 1019.9
20260505065108 55 312 3.0 12.0 0.00 0.00 0.00 33 1019.6
20260505064602 55 276 3.0 9.0 0.00 0.00 0.00 33 1019.8
20260505064056 55 309 3.0 9.0 0.00 0.00 0.00 33 1019.5
20260505063550 55 280 4.0 10.0 0.00 0.00 0.00 33 1019.5
20260505063043 55 258 4.0 11.0 0.00 0.00 0.00 33 1019.6
20260505062537 55 252 4.0 11.0 0.00 0.00 0.00 33 1019.6
20260505062031 55 266 4.0 11.0 0.00 0.00 0.00 33 1019.6
20260505061530 55 217 5.0 11.0 0.00 0.00 0.00 33 1019.6
20260505061030 55 239 6.0 12.0 0.00 0.00 0.00 33 1019.5
20260505060531 55 228 7.0 12.0 0.00 0.00 0.00 33 1019.6
20260505060031 55 277 6.0 14.0 0.00 0.00 0.00 33 1019.8
20260505055528 55 270 6.0 14.0 0.00 0.00 0.00 33 1019.9
20260505055250 55 300 4.0 13.0 0.00 0.00 0.00 33 1019.8
20260505054848 55 265 4.0 13.0 0.00 0.00 0.00 33 1019.6
20260505054747 55 261 4.0 13.0 0.00 0.00 0.00 33 1019.6
20260505053529 55 268 2.0 9.0 0.00 0.00 0.00 33 1019.5
20260505053029 55 253 1.0 3.0 0.00 0.00 0.00 33 1019.5
20260505052530 56 291 1.0 5.0 0.00 0.00 0.00 34 1019.5
20260505052024 56 269 1.0 5.0 0.00 0.00 0.00 34 1019.5
20260505051524 56 284 1.0 4.0 0.00 0.00 0.00 33 1019.4
20260505051025 56 36 2.0 4.0 0.00 0.00 0.00 33 1019.4
20260505050524 56 332 2.0 5.0 0.00 0.00 0.00 33 1019.5
20260505050247 56 346 2.0 5.0 0.00 0.00 0.00 32 1019.6
20260505041522 57 323 5.0 10.0 0.00 0.00 0.00 31 1019.6
20260505041022 57 302 4.0 10.0 0.00 0.00 0.00 30 1019.6
20260505040523 57 300 4.0 10.0 0.00 0.00 0.00 30 1019.6
20260505040023 57 323 5.0 10.0 0.00 0.00 0.00 29 1019.8
20260505035522 57 15 5.0 11.0 0.00 0.00 0.00 29 1019.8
20260505035023 57 333 5.0 11.0 0.00 0.00 0.00 29 1019.8
20260505034523 57 315 4.0 11.0 0.00 0.00 0.00 28 1019.8
20260505034022 57 355 4.0 12.0 0.00 0.00 0.00 28 1019.6
20260505033520 57 315 4.0 12.0 0.00 0.00 0.00 27 1019.6
20260505033021 57 331 5.0 12.0 0.00 0.00 0.00 27 1019.5
20260505032518 58 303 6.0 14.0 0.00 0.00 0.00 27 1019.5
20260505032019 58 320 6.0 14.0 0.00 0.00 0.00 27 1019.4
20260505031740 58 317 5.0 11.0 0.00 0.00 0.00 26 1019.2
20260505031505 58 300 5.0 11.0 0.00 0.00 0.00 26 1019.1
20260505030519 58 310 6.0 11.0 0.00 0.00 0.00 25 1019.1
20260505030018 58 310 6.0 15.0 0.00 0.00 0.00 25 1019.0
20260505025519 58 315 6.0 18.0 0.00 0.00 0.00 24 1019.0
20260505025018 59 315 6.0 18.0 0.00 0.00 0.00 24 1019.0
20260505024518 59 313 6.0 13.0 0.00 0.00 0.00 24 1018.9
20260505024020 59 309 6.0 14.0 0.00 0.00 0.00 24 1018.7
20260505023517 59 293 6.0 14.0 0.00 0.00 0.00 24 1018.9
20260505023017 59 325 5.0 11.0 0.00 0.00 0.00 23 1018.7
20260505022512 59 281 6.0 13.0 0.00 0.00 0.00 23 1018.7
20260505022005 60 271 6.0 13.0 0.00 0.00 0.00 23 1018.7
20260505021723 60 338 7.0 18.0 0.00 0.00 0.00 22 1018.7
20260505020953 60 289 7.0 18.0 0.00 0.00 0.00 22 1018.7
20260505020447 60 315 8.0 22.0 0.00 0.00 0.00 22 1018.6
20260505015942 60 296 9.0 22.0 0.00 0.00 0.00 22 1018.7
20260505015436 60 336 7.0 16.0 0.00 0.00 0.00 21 1018.6
20260505014929 60 312 6.0 16.0 0.00 0.00 0.00 21 1018.6
20260505014423 61 273 9.0 16.0 0.00 0.00 0.00 21 1018.5
20260505013917 61 269 9.0 17.0 0.00 0.00 0.00 21 1018.4
20260505013411 61 261 9.0 17.0 0.00 0.00 0.00 21 1018.2
20260505013129 61 247 9.0 17.0 0.00 0.00 0.00 20 1018.2
20260505012359 61 263 8.0 18.0 0.00 0.00 0.00 20 1018.1
20260505011853 61 293 8.0 18.0 0.00 0.00 0.00 20 1018.2
20260505011347 62 256 7.0 16.0 0.00 0.00 0.00 20 1018.1
20260505010841 62 254 8.0 23.0 0.00 0.00 0.00 20 1018.2
20260505010335 62 285 10.0 23.0 0.00 0.00 0.00 20 1018.1
20260505005829 62 285 12.0 22.0 0.00 0.00 0.00 20 1018.2
20260505005323 62 208 11.0 22.0 0.00 0.00 0.00 20 1018.4
20260505004818 62 254 9.0 23.0 0.00 0.00 0.00 19 1018.4
20260505004311 62 294 10.0 23.0 0.00 0.00 0.00 19 1018.4
20260505004029 62 238 9.0 20.0 0.00 0.00 0.00 20 1018.5
20260505003754 62 293 8.0 20.0 0.00 0.00 0.00 20 1018.5
20260505002753 62 283 8.0 16.0 0.00 0.00 0.00 20 1018.5
20260505002248 63 235 9.0 16.0 0.00 0.00 0.00 20 1018.5
20260505001742 63 309 10.0 20.0 0.00 0.00 0.00 19 1018.4
20260505001236 63 275 9.0 24.0 0.00 0.00 0.00 20 1018.5
20260505000729 63 265 7.0 24.0 0.00 0.00 0.00 20 1018.6
20260505000448 63 265 7.0 16.0 0.00 0.00 0.00 21 1018.6
20260504235717 63 186 9.0 20.0 0.00 0.00 0.00 20 1018.6
20260504235211 63 344 11.0 23.0 0.00 0.00 0.00 20 1018.7
20260504234705 64 256 9.0 23.0 0.00 0.00 0.00 20 1018.7
20260504234428 64 321 7.0 17.0 0.00 0.00 0.00 21 1018.7
20260504233653 64 266 9.0 21.0 0.00 0.00 0.00 21 1018.7
20260504233147 64 255 10.0 23.0 0.00 0.00 0.00 21 1018.6
20260504232641 64 262 8.0 23.0 0.00 0.00 0.00 21 1018.7
20260504232353 64 256 9.0 18.0 0.00 0.00 0.00 21 1018.6
20260504231629 64 250 8.0 16.0 0.00 0.00 0.00 21 1018.6
20260504231123 64 238 6.0 14.0 0.00 0.00 0.00 21 1018.6
20260504230842 64 355 8.0 17.0 0.00 0.00 0.00 21 1018.9
20260504230111 64 254 12.0 24.0 0.00 0.00 0.00 21 1019.1
20260504230047 64 325 13.0 28.0 0.00 0.00 0.00 21 1019.1
20260504225059 64 243 11.0 28.0 0.00 0.00 0.00 21 1019.1
20260504224553 64 313 9.0 23.0 0.00 0.00 0.00 21 1019.1
20260504224048 63 328 7.0 23.0 0.00 0.00 0.00 21 1019.0
20260504223541 63 243 9.0 23.0 0.00 0.00 0.00 20 1019.1
20260504223035 63 84 11.0 23.0 0.00 0.00 0.00 20 1019.1
20260504222530 63 238 11.0 19.0 0.00 0.00 0.00 20 1019.2
20260504222023 64 324 11.0 21.0 0.00 0.00 0.00 19 1019.4
20260504221517 64 306 9.0 21.0 0.00 0.00 0.00 19 1019.2
20260504221237 64 263 10.0 24.0 0.00 0.00 0.00 19 1019.4
20260504220506 64 299 11.0 24.0 0.00 0.00 0.00 17 1019.4
20260504220221 64 344 10.0 25.0 0.00 0.00 0.00 17 1019.5
20260504215453 65 200 12.0 25.0 0.00 0.00 0.00 17 1019.5
20260504214947 65 250 12.0 23.0 0.00 0.00 0.00 17 1019.5
20260504214441 65 317 10.0 23.0 0.00 0.00 0.00 17 1019.5
20260504213935 66 315 9.0 23.0 0.00 0.00 0.00 16 1019.5
20260504213430 66 307 10.0 21.0 0.00 0.00 0.00 15 1019.6
20260504212923 66 320 9.0 19.0 0.00 0.00 0.00 15 1019.8
20260504212419 66 229 9.0 19.0 0.00 0.00 0.00 17 1019.8
20260504211920 65 261 10.0 19.0 0.00 0.00 0.00 17 1019.9
20260504211421 65 278 11.0 23.0 0.00 0.00 0.00 16 1019.9
20260504210919 65 234 13.0 23.0 0.00 0.00 0.00 17 1020.0
20260504210644 65 227 10.0 23.0 0.00 0.00 0.00 17 1020.0
20260504205922 65 268 10.0 25.0 0.00 0.00 0.00 19 1020.3
20260504205420 65 250 10.0 25.0 0.00 0.00 0.00 19 1020.4
20260504204920 66 239 9.0 19.0 0.00 0.00 0.00 19 1020.4
20260504204644 66 286 10.0 19.0 0.00 0.00 0.00 20 1020.5
20260504203920 65 209 11.0 23.0 0.00 0.00 0.00 21 1020.6
20260504203421 65 281 12.0 23.0 0.00 0.00 0.00 20 1020.5
20260504202920 65 269 11.0 22.0 0.00 0.00 0.00 20 1020.6
20260504202420 65 229 11.0 22.0 0.00 0.00 0.00 20 1020.6
20260504201919 66 290 10.0 20.0 0.00 0.00 0.00 20 1020.6
20260504201636 65 269 11.0 24.0 0.00 0.00 0.00 21 1020.6
20260504201402 65 221 10.0 24.0 0.00 0.00 0.00 21 1020.6
20260504200639 66 225 11.0 23.0 0.00 0.00 0.00 21 1020.8